Home   Weather   Orléans   Past weeks

Flag for France Past Weather in Orléans, Centre-Val de Loire, France — Yesterday and Last 2 Weeks

Now
28 °F

Ice fog.


Feels Like: 28 °F
Forecast: 22 / 31 °F
Wind: 1 mph from North

Location: Orleans Airport

Current Time: Jan 24, 2017 at 12:18:44 pm

Latest Report: Jan 24, 2017 at 11:30 am


Visibility: 3 mi

Pressure: 30.39 "Hg

Humidity: 93%

Dew Point: 27 °F

Location of OrléansLocation

Past Weather in Orléans — Graph

°F

Orléans Temperature Yesterday

Maximum temperature yesterday: 39 °F (at 3:00 pm)
Minimum temperature yesterday: 23 °F (at 5:30 am)
Average temperature yesterday: 29 °F

High & Low Weather Summary for the Past Weeks

 TemperatureHumidityPressure
High50 °F (Jan 11, 2:00 pm)100% (Jan 9, 11:00 am)30.51 "Hg (Jan 9, 11:00 am)
Low16 °F (Jan 21, 6:30 am)61% (Jan 22, 3:00 pm)29.45 "Hg (Jan 12, 7:00 pm)
Average33 °F87%30.21 "Hg
* Reported Jan 9 11:00 am — Jan 24 11:00 am, Orléans, Weather by CustomWeather, © 2017

Note: Actual official high and low records may vary slightly from our data, if they occured in-between our weather recording intervals... More about our weather records

Advertising

Orléans Weather History for the Previous 24 Hours

Scroll right to see more
 ConditionsComfort  
Time TempWeatherWind HumidityBarometerVisibility
11:00 am
Tue, Jan 24
27 °FIce fog.5 mph100%30.39 "Hg3 mi
10:30 am27 °FIce fog.3 mph93%30.36 "Hg3 mi
10:00 am25 °FOvercast.N/A100%30.36 "Hg4 mi
9:30 am25 °FIce fog.N/A93%30.36 "Hg3 mi
9:00 am25 °FIce fog.N/A93%30.36 "Hg3 mi
8:30 am25 °FIce fog.N/A93%30.36 "Hg2 mi
8:00 am25 °FIce fog.N/A93%30.36 "Hg1 mi
7:30 am23 °FIce fog.N/A100%30.33 "Hg1 mi
7:00 am23 °FIce fog.N/A100%30.36 "Hg0 mi
6:30 am23 °FIce fog.N/A93%30.36 "Hg0 mi
6:00 am23 °FIce fog.N/A100%30.33 "Hg0 mi
5:30 am23 °FIce fog.N/A100%30.33 "Hg0 mi
5:00 am25 °FIce fog.N/A93%30.33 "Hg0 mi
4:30 am25 °FIce fog.N/A100%30.33 "Hg0 mi
4:00 am25 °FIce fog.N/A100%30.33 "Hg0 mi
3:30 am25 °FIce fog.N/A100%30.33 "Hg0 mi
3:00 am25 °FIce fog.N/A100%30.33 "Hg0 mi
2:30 am25 °FIce fog.N/A100%30.33 "Hg0 mi
2:00 am27 °FIce fog.N/A93%30.33 "Hg0 mi
1:30 am27 °FIce fog.N/A100%30.33 "Hg0 mi
1:00 am27 °FIce fog.7 mph100%30.33 "Hg1 mi
12:30 am27 °FIce fog.6 mph100%30.33 "Hg1 mi
12:00 am27 °FIce fog.9 mph100%30.33 "Hg1 mi
11:30 pm
Mon, Jan 23
27 °FIce fog.12 mph100%30.33 "Hg1 mi
11:00 pm27 °FIce fog.9 mph100%30.33 "Hg1 mi
10:30 pm27 °FIce fog.7 mph93%30.33 "Hg2 mi
10:00 pm27 °FIce fog.7 mph93%30.30 "Hg2 mi
9:30 pm27 °FIce fog.8 mph93%30.33 "Hg2 mi
9:00 pm27 °FIce fog.8 mph93%30.30 "Hg2 mi
8:30 pm28 °FIce fog.12 mph93%30.30 "Hg2 mi
8:00 pm28 °FIce fog.9 mph93%30.30 "Hg2 mi
7:30 pm28 °FIce fog.9 mph93%30.30 "Hg2 mi
7:00 pm30 °FIce fog.8 mph86%30.30 "Hg2 mi
6:30 pm30 °FIce fog.8 mph86%30.30 "Hg2 mi
6:00 pm32 °FIce fog.10 mph87%30.30 "Hg2 mi
5:30 pm34 °FFog.9 mph81%30.30 "Hg2 mi
5:00 pm36 °FFog.7 mph75%30.30 "Hg2 mi
4:30 pm37 °FFog.8 mph70%30.27 "Hg3 mi
4:00 pm37 °FHaze.N/A70%30.27 "Hg3 mi
3:30 pm39 °FClear.N/A65%30.30 "Hg4 mi
3:00 pm39 °FClear.N/A61%30.30 "Hg4 mi
2:30 pm37 °FClear.N/A65%30.30 "Hg4 mi
2:00 pm37 °FClear.N/A65%30.30 "Hg5 mi
1:30 pm37 °FClear.N/A65%30.30 "Hg4 mi
1:00 pm36 °FClear.N/A70%30.30 "Hg4 mi
12:30 pm36 °FClear.N/A70%30.30 "Hg4 mi
12:00 pm34 °FFog.N/A75%30.33 "Hg3 mi
Weather by CustomWeather, © 2017

See weather overviewHow to use our weather pages